Dauntless Aviation
Airports South America Argentina
SABE
AEP

Aeroparque Jorge Newbery

Buenos Aires, ARGENTINA

Airport Info
Suggest Updated Information for this Airport

Location

Latitude / Longitude: 34°33'33"S / 58°24'56"W
  34°33.552'S / 58°24.936'W
  -34.5592 / -58.4156

Nearby radio navigation aids

FDO SAN FERNANDO VOR/DME. 132.7° 10.6nm from FDO to field.
OP AEROPARQUE JORGE NEWBERY NDB. 131.1° 4.3nm from OP to field.

Runway Information

Runway 13 /31

Dimensions: 6890 x 131 ft.
Surface: ASP
 
Runway 13
Runway 31
Latitude: -34.553942 -34.563844
Longitude: -58.425247 -58.407506
Elevation: 18 ft. 18 ft.
Runway true heading: 126.3 306.3
 

Instrument Procedures

  Aerodrome Chart

STARs (Standard Terminal Arrivals)

  STAR Rwy 13/16 SARGO7C KOVUK7C TENIL7C BELGRANO7C
  STAR Rwy 13/16 PAGON7C SAN ANTONIO7C ASADA7C VALOS8C
  STAR Rwy 13/16 SURBO7A KUKEN1C PAPIX1C
  STAR Rwy 31 SURBO2B SARGO7D KOVUK7D TENIL7D BELGRANO7D VALOS7D ASADA7D
  STAR Rwy 31 PAGON7D SAN ANTONIO7D

IAPs (Instrument Approach Procedures)

  VOR (DME) ILS Rwy 13
  VOR (DMS) ILS (DME) Rwy 13
  LI ILS (DME) Rwy 13
  VOR (DME) LO LI Rwy 13
  LI LO LI Rwy 13
  LI Rwy 31
  LI Rwy 31

Departure Procedures

  SID Rwy 13/31 LANDA3B VIBAM38 ATOVO38
  SID Rwy 13/31 EZEIZA8
  SID Rwy 13/31 EL PALOMAR 8
  SID Rwy 13/31 KUKEN7 SURBO7 DORVO7 LA PLAYA7
Satellite photo at:
Airport distance calculator
From:
Weather Reports

METAR

SABE

SABE 220400Z VRB04KT CAVOK 25/21 Q1013
SADF
10.6nm W
SADF 220400Z 18004KT CAVOK 23/20 Q1013
SAEZ
16.2nm S
SAEZ 220400Z VRB03KT 9999 FEW050CB SCT100 BKN200 22/21 Q1012 RMK LGHT OBS TO SW

TAF

SABE
TAF SABE 212300Z 2200/2224 33005KT 9999 BKN025 BKN090 TX32/2218Z TN23/2210Z TEMPO 2200/2203 9000 RADZ OVC020 BECMG 2206/2208 9999 SCT030 SCT090 PROB30 2218/2221 3000 TSRA FEW035CB BKN040
SADF
10.6nm W
TAF SADF 212300Z 2200/2224 33005KT 9999 BKN025 BKN090 TX32/2218Z TN23/2210Z TEMPO 2200/2203 9000 RADZ OVC020 BECMG 2206/2208 9999 SCT030 SCT090 PROB30 2218/2220 3000 TSRA FEW035CB BKN040
SAEZ
16.2nm S
TAF AMD SAEZ 220250Z 2203/2224 VRB05KT 9999 SCT020 FEW035CB BKN100 TX34/2219Z TN21/2209Z BECMG 2206/2208 9999 SCT030 SCT090 PROB30 TEMPO 2206/2211 VRB05KT 2000 MIFG BR PROB30 2217/2219 27005KT 9000 -SHRA SCT20 FEW040CB BKN050
SUCA
32.8nm NE
TAF SUCA 212230Z 2200/2224 35010KT 9999 FEW030TCU BKN080 TX32/2218Z TN22/2209Z TEMPO 2200/2206 5000 TSRA FEW040CB OVC060 BECMG 2214/2216 25005KT
Safelog

 

Dauntless Aviation

© 2007-2017 Dauntless Aviation, all rights reserved
Information provided via PilotNav comes from a variety of official and unofficial data sources. As errors are possible, do not use PilotNav for primary flight planning purposes. Verify any information that you receive via PilotNav with current and canonical charts and other official documents. The material in this database is subject to database copyrights held by Dauntless Aviation and may not be copied without the express permission of Dauntless Aviation - licenses for use of part of all of this data are available for purchase; enquire via the Dauntless Aviation helpdesk. A number of mechanisms and markers exist in the database to protect against and identify infringement / copyright. Automated queries against this website are stictly prohibited, and all activity is logged and analyzed.